Language: 


Des rapports , des résumés tant et plus, au choix de chacun....


Données statistiques de la station
Quotidien Rapport Novembre 26, 2017 Unités:  Anglais    Métrique   les deux
« Précédent Jour
Suivant Jour »
Quotidien Hebdomadaire Mensuel Annuel Actuel
  Haut: Bas: Moyen:
Température: TemperatureC °F -0.3 °F 3.1 °F
Pt de rosée: DewpointC °F -2.0 °F 1.9 °F
Humidité: Humidity % 71 % 90 %
Vitesse du vent: WindSpeedKMH mph 0.0 mph 5.2 mph
Rafales: WindSpeedGustKMH mph - -
Vent:- - West
Pression: PressurehPa in 0.0 in -
Précipitation: 0.3 in    
Historical Graphs
 
 
Données statistiques pour Novembre 26, 2017
Heure Température Point de rosée Pression Vent Vitesse du vent Refales Humidité Pluie (taux horaire)
TemperatureC °F DewpointC °F PressurehPa in Calm     Humidity % HourlyPrecipMM in
00:01 1.6 °F 1.0 °F 1018.8 in West 5.8 mph 7.9 mph 93 % 0.0 in
00:06 1.6 °F 1.0 °F 1018.8 in WSW 5.0 mph 6.9 mph 93 % 0.0 in
00:11 1.6 °F 1.0 °F 1018.8 in West 4.7 mph 8.7 mph 94 % 0.0 in
00:16 1.5 °F 1.0 °F 1018.8 in Calm   8.7 mph 94 % 0.0 in
00:21 1.4 °F 1.0 °F 1018.8 in Calm   4.7 mph 93 % 0.0 in
00:26 1.4 °F 1.0 °F 1018.8 in Calm   6.1 mph 93 % 0.0 in
00:31 1.4 °F 1.0 °F 1018.8 in West 5.8 mph 8.7 mph 94 % 0.0 in
00:36 1.4 °F 1.0 °F 1018.8 in West 6.1 mph 8.7 mph 94 % 0.0 in
00:41 1.5 °F 1.0 °F 1018.8 in Calm   9.7 mph 94 % 0.0 in
00:46 1.5 °F 1.0 °F 1018.8 in West 7.6 mph 9.7 mph 94 % 0.0 in
00:51 1.5 °F 1.0 °F 1018.8 in West 5.8 mph 9.3 mph 94 % 0.0 in
00:56 1.4 °F 1.0 °F 1018.8 in WSW 5.8 mph 9.7 mph 94 % 0.0 in
01:01 1.4 °F 1.0 °F 1018.8 in West 5.0 mph 9.7 mph 94 % 0.0 in
01:06 1.4 °F 1.0 °F 1018.8 in Calm   7.6 mph 94 % 0.0 in
01:11 1.4 °F 1.0 °F 1018.8 in WSW 6.4 mph 8.7 mph 94 % 0.0 in
01:16 1.3 °F 1.0 °F 1018.8 in WSW 5.5 mph 8.7 mph 94 % 0.0 in
01:21 1.2 °F 1.0 °F 1018.8 in WSW 6.9 mph 7.6 mph 94 % 0.0 in
01:26 1.2 °F 1.0 °F 1018.8 in WSW 5.5 mph 7.9 mph 94 % 0.0 in
01:32 1.2 °F 1.0 °F 1018.8 in Calm   8.7 mph 94 % 0.0 in
01:37 1.2 °F 1.0 °F 1018.8 in WSW 2.1 mph 8.7 mph 95 % 0.0 in
01:47 1.1 °F 1.0 °F 1018.8 in West 6.4 mph 9.3 mph 95 % 0.0 in
01:52 1.2 °F 1.0 °F 1018.8 in West 7.9 mph 9.3 mph 95 % 0.0 in
01:57 1.2 °F 1.0 °F 1018.8 in West 6.9 mph 9.3 mph 95 % 0.0 in
02:02 1.2 °F 1.0 °F 1018.8 in West 3.2 mph 9.3 mph 95 % 0.0 in
02:07 1.2 °F 1.0 °F 1018.8 in West 5.0 mph 7.2 mph 95 % 0.0 in
02:12 1.1 °F 1.0 °F 1018.8 in WNW 5.0 mph 6.9 mph 95 % 0.0 in
02:17 1.1 °F 1.0 °F 1018.8 in West 4.3 mph 7.2 mph 95 % 0.0 in
02:22 1.1 °F 1.0 °F 1018.8 in West 2.1 mph 7.9 mph 96 % 0.0 in
02:27 1.1 °F 1.0 °F 1018.8 in WSW 7.9 mph 7.9 mph 96 % 0.0 in
02:32 1.2 °F 1.0 °F 1018.8 in WSW 5.0 mph 7.9 mph 96 % 0.0 in
02:37 1.2 °F 1.0 °F 1018.8 in West 4.0 mph 9.0 mph 96 % 0.0 in
02:42 1.2 °F 1.0 °F 1018.8 in West 4.0 mph 9.0 mph 96 % 0.0 in
02:47 1.2 °F 1.0 °F 1018.8 in Calm   7.9 mph 96 % 0.0 in
02:52 1.2 °F 1.0 °F 1018.8 in West 5.8 mph 7.9 mph 96 % 0.0 in
02:57 1.1 °F 1.0 °F 1019.9 in West 8.7 mph 10.1 mph 96 % 0.0 in
03:02 1.1 °F 1.0 °F 0.0 in West 7.6 mph 9.7 mph 96 % 0.0 in
03:07 1.1 °F 1.0 °F 1019.9 in West 6.1 mph 9.7 mph 96 % 0.0 in
03:12 1.1 °F 1.0 °F 1019.9 in WSW 6.9 mph 7.6 mph 96 % 0.0 in
03:17 1.1 °F 1.0 °F 1019.9 in Calm   7.9 mph 96 % 0.0 in
03:22 1.0 °F 1.0 °F 1019.9 in WSW 6.4 mph 7.9 mph 96 % 0.0 in
03:27 1.0 °F 1.0 °F 1019.9 in Calm   7.6 mph 96 % 0.0 in
03:32 1.0 °F 1.0 °F 1019.9 in West 4.7 mph 7.6 mph 96 % 0.0 in
03:37 1.1 °F 1.0 °F 1019.9 in West 5.0 mph 7.6 mph 97 % 0.0 in
03:42 1.1 °F 1.0 °F 1019.9 in Calm   7.6 mph 97 % 0.0 in
03:47 1.1 °F 1.0 °F 1019.9 in Calm   7.6 mph 97 % 0.0 in
03:52 1.0 °F 1.0 °F 1019.9 in West 6.1 mph 7.2 mph 97 % 0.0 in
04:02 0.9 °F 1.0 °F 1019.9 in West 1.4 mph 9.3 mph 97 % 0.0 in
04:07 0.9 °F 1.0 °F 1019.9 in West 6.9 mph 9.3 mph 97 % 0.0 in
04:12 1.0 °F 1.0 °F 1019.9 in WSW 5.5 mph 9.0 mph 97 % 0.0 in
04:17 1.0 °F 1.0 °F 1019.9 in Calm   9.0 mph 97 % 0.0 in
04:27 1.0 °F 1.0 °F 1018.8 in West 5.0 mph 9.7 mph 98 % 0.0 in
04:32 1.0 °F 1.0 °F 1018.8 in West 5.8 mph 9.7 mph 98 % 0.0 in
04:37 1.0 °F 1.0 °F 1018.8 in West 7.9 mph 9.0 mph 98 % 0.0 in
04:42 0.9 °F 1.0 °F 1018.8 in WSW 9.0 mph 9.0 mph 98 % 0.0 in
04:48 0.9 °F 1.0 °F 1018.8 in Calm   9.0 mph 98 % 0.0 in
04:53 0.9 °F 1.0 °F 1018.8 in Calm   7.9 mph 98 % 0.0 in
04:58 0.8 °F 1.0 °F 1018.8 in Calm   6.9 mph 98 % 0.0 in
05:03 0.7 °F 1.0 °F 1018.8 in Calm   7.9 mph 98 % 0.0 in
05:08 0.7 °F 1.0 °F 1018.8 in WSW 6.1 mph 9.0 mph 98 % 0.0 in
05:13 0.7 °F 1.0 °F 1019.9 in Calm   9.0 mph 98 % 0.0 in
05:18 0.7 °F 1.0 °F 1019.9 in WSW 6.9 mph 8.7 mph 98 % 0.0 in
05:23 0.6 °F 1.0 °F 1019.9 in Calm   8.7 mph 98 % 0.0 in
05:33 0.6 °F 1.0 °F 1019.9 in Calm     98 % 0.0 in
05:38 0.5 °F 1.0 °F 1019.9 in Calm     98 % 0.0 in
05:43 0.4 °F 1.0 °F 1018.8 in Calm     98 % 0.0 in
05:48 0.4 °F 1.0 °F 1018.8 in Calm     98 % 0.0 in
05:53 0.5 °F 1.0 °F 1018.8 in Calm     98 % 0.0 in
05:58 0.4 °F 1.0 °F 1018.8 in Calm     98 % 0.0 in
06:03 0.3 °F 1.0 °F 1018.8 in Calm     98 % 0.0 in
06:08 0.1 °F 0.0 °F 1018.8 in Calm     98 % 0.0 in
06:10 0.1 °F 0.0 °F 1018.8 in Calm     98 % 0.0 in
06:15 0.0 °F -1.0 °F 1018.8 in Calm     98 % 0.0 in
06:20 -0.1 °F -1.0 °F 1018.8 in Calm     98 % 0.0 in
06:25 -0.1 °F -1.0 °F 1019.9 in Calm     98 % 0.0 in
06:30 -0.1 °F -1.0 °F 1019.9 in Calm     98 % 0.0 in
06:36 -0.2 °F -1.0 °F 1019.9 in Calm     98 % 0.0 in
06:41 -0.2 °F -1.0 °F 1019.9 in Calm     98 % 0.0 in
06:46 -0.2 °F -1.0 °F 1019.9 in Calm     98 % 0.0 in
06:51 -0.2 °F -1.0 °F 1019.9 in Calm     98 % 0.0 in
06:56 -0.3 °F -1.0 °F 1019.9 in Calm     98 % 0.0 in
07:01 -0.3 °F -1.0 °F 1019.9 in Calm     98 % 0.0 in
07:06 -0.2 °F -1.0 °F 1019.9 in Calm     98 % 0.0 in
07:11 0.1 °F 0.0 °F 1019.9 in Calm   6.9 mph 98 % 0.0 in
07:16 0.1 °F 0.0 °F 1019.9 in Calm   6.9 mph 98 % 0.0 in
07:21 0.0 °F -1.0 °F 1019.9 in Calm   1.8 mph 98 % 0.0 in
07:26 0.0 °F -1.0 °F 1020.9 in West 6.9 mph 6.9 mph 98 % 0.0 in
07:31 0.0 °F -1.0 °F 1020.9 in WSW 5.8 mph 6.9 mph 98 % 0.0 in
07:36 0.2 °F 0.0 °F 1020.9 in Calm   6.9 mph 98 % 0.0 in
07:41 0.1 °F 0.0 °F 1020.9 in Calm   6.9 mph 98 % 0.0 in
07:46 0.2 °F 0.0 °F 1020.9 in Calm   6.4 mph 98 % 0.0 in
07:51 0.3 °F 1.0 °F 1020.9 in Calm   5.8 mph 98 % 0.0 in
07:56 0.4 °F 1.0 °F 1020.9 in Calm   8.7 mph 98 % 0.0 in
08:01 0.5 °F 1.0 °F 1020.9 in Calm   8.7 mph 98 % 0.0 in
08:06 0.5 °F 1.0 °F 1020.9 in Calm   5.8 mph 98 % 0.0 in
08:11 0.5 °F 1.0 °F 1021.9 in WSW 9.3 mph 9.3 mph 98 % 0.0 in
08:16 0.6 °F 1.0 °F 1021.9 in WSW 8.7 mph 9.3 mph 98 % 0.0 in
08:21 0.7 °F 1.0 °F 1021.9 in West 7.9 mph 10.5 mph 98 % 0.0 in
08:26 0.8 °F 1.0 °F 1020.9 in West 5.8 mph 10.5 mph 98 % 0.0 in
08:31 0.9 °F 1.0 °F 1020.9 in West 5.0 mph 9.0 mph 98 % 0.0 in
08:36 0.9 °F 1.0 °F 1020.9 in Calm   9.0 mph 98 % 0.0 in
08:41 0.7 °F 1.0 °F 1020.9 in Calm   7.9 mph 98 % 0.0 in
08:46 0.7 °F 1.0 °F 1020.9 in Calm   7.2 mph 98 % 0.0 in
08:51 0.7 °F 1.0 °F 1020.9 in WSW 5.5 mph 7.6 mph 98 % 0.0 in
08:56 0.7 °F 1.0 °F 1020.9 in WSW 7.2 mph 7.6 mph 98 % 0.0 in
09:01 0.8 °F 1.0 °F 1020.9 in WSW 9.0 mph 9.0 mph 98 % 0.0 in
09:07 0.8 °F 1.0 °F 1020.9 in WSW 7.6 mph 9.3 mph 98 % 0.0 in
09:13 1.0 °F 1.0 °F 1021.9 in Calm   9.3 mph 98 % 0.0 in
09:18 1.2 °F 1.0 °F 1021.9 in WSW 2.1 mph 10.1 mph 98 % 0.0 in
09:23 1.3 °F 1.0 °F 1021.9 in WSW 6.1 mph 10.1 mph 98 % 0.0 in
09:28 1.3 °F 1.0 °F 1021.9 in WSW 5.0 mph 9.0 mph 98 % 0.0 in
09:33 1.4 °F 1.0 °F 1021.9 in Calm   9.0 mph 98 % 0.0 in
09:38 1.6 °F 2.0 °F 1021.9 in Calm   7.9 mph 98 % 0.0 in
09:44 1.8 °F 2.0 °F 1021.9 in Calm   6.1 mph 98 % 0.0 in
09:49 2.0 °F 2.0 °F 1021.9 in West 9.3 mph 9.3 mph 98 % 0.0 in
09:54 2.4 °F 3.0 °F 1021.9 in West 7.6 mph 9.7 mph 98 % 0.0 in
09:59 2.5 °F 3.0 °F 1021.9 in West 6.4 mph 9.7 mph 98 % 0.0 in
10:04 2.6 °F 3.0 °F 1021.9 in Calm   8.7 mph 98 % 0.0 in
10:09 2.8 °F 3.0 °F 1021.9 in WSW 5.5 mph 7.6 mph 98 % 0.0 in
10:14 3.0 °F 3.0 °F 1022.9 in Calm   7.6 mph 98 % 0.0 in
10:19 3.1 °F 3.0 °F 1022.9 in WSW 7.9 mph 9.0 mph 98 % 0.0 in
10:24 3.5 °F 4.0 °F 1022.9 in WSW 6.9 mph 9.0 mph 98 % 0.0 in
10:29 3.8 °F 4.0 °F 1022.9 in WSW 9.0 mph 9.7 mph 98 % 0.0 in
10:34 4.0 °F 4.0 °F 1022.9 in West 10.1 mph 10.1 mph 98 % 0.0 in
10:39 4.3 °F 4.0 °F 1022.9 in WSW 8.7 mph 10.5 mph 98 % 0.0 in
10:44 4.6 °F 5.0 °F 1022.9 in West 6.4 mph 12.2 mph 98 % 0.0 in
10:49 4.9 °F 5.0 °F 1022.9 in West 10.1 mph 13.0 mph 98 % 0.0 in
10:54 5.0 °F 5.0 °F 1022.9 in West 12.6 mph 13.7 mph 98 % 0.0 in
10:59 5.3 °F 6.0 °F 1022.9 in WSW 11.9 mph 13.7 mph 98 % 0.0 in
11:04 5.6 °F 6.0 °F 1022.9 in WSW 16.3 mph 16.3 mph 98 % 0.3 in
11:09 5.8 °F 6.0 °F 1022.9 in WSW 10.5 mph 16.3 mph 98 % 0.3 in
11:14 6.1 °F 6.0 °F 1022.9 in West 10.8 mph 16.3 mph 98 % 0.3 in
11:19 6.2 °F 6.0 °F 1022.9 in WSW 8.7 mph 13.7 mph 97 % 0.3 in
11:24 6.4 °F 6.0 °F 1022.9 in SW 10.1 mph 14.8 mph 97 % 0.3 in
11:29 6.5 °F 6.0 °F 1022.9 in West 11.9 mph 14.8 mph 95 % 0.3 in
11:34 6.5 °F 6.0 °F 1022.9 in WSW 9.7 mph 15.8 mph 94 % 0.3 in
11:39 6.5 °F 6.0 °F 1022.9 in West 13.0 mph 17.7 mph 93 % 0.3 in
11:44 6.5 °F 6.0 °F 1022.9 in WSW 12.2 mph 17.7 mph 91 % 0.3 in
11:49 6.9 °F 6.0 °F 1022.9 in West 16.6 mph 19.1 mph 91 % 0.3 in
11:54 7.1 °F 6.0 °F 1022.9 in West 16.3 mph 19.1 mph 89 % 0.3 in
11:58 7.2 °F 6.0 °F 1022.9 in WNW 6.9 mph 21.2 mph 87 % 0.3 in
12:03 7.4 °F 5.0 °F 1022.9 in WSW 11.9 mph 21.2 mph 86 % 0.0 in
12:08 7.4 °F 5.0 °F 1022.9 in West 16.6 mph 18.3 mph 86 % 0.0 in
12:13 7.6 °F 5.0 °F 1023.9 in WSW 5.5 mph 18.3 mph 84 % 0.0 in
12:18 7.8 °F 5.0 °F 1023.9 in West 13.7 mph 22.7 mph 84 % 0.0 in
12:23 7.9 °F 5.0 °F 1023.9 in West 11.9 mph 22.7 mph 82 % 0.0 in
12:28 8.0 °F 6.0 °F 1022.9 in WSW 12.6 mph 16.9 mph 82 % 0.0 in
12:31 8.1 °F 5.0 °F 1022.9 in WSW 9.3 mph 16.6 mph 81 % 0.0 in
12:36 8.2 °F 6.0 °F 1022.9 in West 6.1 mph 17.7 mph 82 % 0.0 in
12:41 8.1 °F 5.0 °F 1022.9 in WNW 9.7 mph 21.9 mph 79 % 0.0 in
12:46 8.0 °F 4.0 °F 1022.9 in NNE 10.1 mph 21.9 mph 76 % 0.0 in
12:51 8.1 °F 5.0 °F 1022.9 in WNW 6.4 mph 19.8 mph 77 % 0.0 in
12:56 8.2 °F 5.0 °F 1022.9 in WSW 16.3 mph 23.8 mph 77 % 0.0 in
13:01 8.5 °F 5.0 °F 1022.9 in West 16.3 mph 23.8 mph 76 % 0.0 in
13:06 8.5 °F 5.0 °F 1022.9 in WNW 16.6 mph 19.5 mph 74 % 0.0 in
13:11 8.5 °F 5.0 °F 1022.9 in NW 9.0 mph 27.4 mph 76 % 0.0 in
13:16 8.3 °F 4.0 °F 1022.9 in WNW 16.6 mph 27.4 mph 74 % 0.0 in
13:21 8.0 °F 4.0 °F 1022.9 in SW 16.3 mph 20.1 mph 72 % 0.0 in
13:26 8.1 °F 4.0 °F 1022.9 in West 11.9 mph 19.8 mph 73 % 0.0 in
13:31 8.3 °F 4.0 °F 1022.9 in West 10.1 mph 19.8 mph 74 % 0.0 in
13:36 8.3 °F 4.0 °F 1022.9 in WSW 9.0 mph 17.2 mph 74 % 0.0 in
13:37 8.3 °F 5.0 °F 1022.9 in West 17.7 mph 17.7 mph 75 % 0.0 in
13:42 8.4 °F 5.0 °F 1022.9 in West 19.5 mph 19.8 mph 75 % 0.0 in
13:47 8.5 °F 5.0 °F 1022.9 in WNW 10.1 mph 19.8 mph 75 % 0.0 in
13:52 8.5 °F 4.0 °F 1022.9 in West 10.1 mph 19.5 mph 73 % 0.0 in
13:53 8.5 °F 4.0 °F 1022.9 in West 10.1 mph 17.2 mph 72 % 0.0 in
13:58 8.4 °F 4.0 °F 1022.9 in WNW 13.0 mph 17.2 mph 71 % 0.0 in
14:03 8.1 °F 4.0 °F 1022.9 in West 9.7 mph 17.2 mph 72 % 0.0 in
14:08 8.1 °F 4.0 °F 1022.9 in WSW 4.7 mph 16.9 mph 73 % 0.0 in
14:13 8.3 °F 4.0 °F 1022.9 in WSW 9.0 mph 14.0 mph 74 % 0.0 in
14:18 8.5 °F 5.0 °F 1022.9 in West 14.0 mph 20.6 mph 74 % 0.0 in
14:23 8.5 °F 4.0 °F 1022.9 in West 19.5 mph 20.6 mph 73 % 0.0 in
14:28 8.5 °F 4.0 °F 1022.9 in West 19.8 mph 21.6 mph 73 % 0.0 in
14:33 8.5 °F 4.0 °F 1022.9 in WSW 16.6 mph 22.7 mph 73 % 0.0 in
14:38 8.4 °F 4.0 °F 1022.9 in WSW 9.0 mph 22.7 mph 73 % 0.0 in
14:43 8.3 °F 4.0 °F 1023.9 in West 9.3 mph 17.2 mph 71 % 0.0 in
14:48 8.3 °F 4.0 °F 1023.9 in West 16.3 mph 19.5 mph 72 % 0.0 in
14:53 8.2 °F 4.0 °F 1023.9 in West 12.6 mph 19.5 mph 73 % 0.0 in
14:58 8.2 °F 4.0 °F 1022.9 in West 12.6 mph 18.3 mph 73 % 0.0 in
15:03 8.3 °F 4.0 °F 1022.9 in WSW 13.7 mph 18.3 mph 73 % 0.0 in
15:08 8.4 °F 4.0 °F 1022.9 in West 17.2 mph 23.0 mph 73 % 0.0 in
15:13 8.3 °F 4.0 °F 1022.9 in West 14.0 mph 23.0 mph 72 % 0.0 in
15:18 8.1 °F 4.0 °F 1022.9 in WSW 9.3 mph 20.6 mph 72 % 0.0 in
15:23 8.1 °F 4.0 °F 1022.9 in West 13.7 mph 16.9 mph 73 % 0.0 in
15:28 7.9 °F 3.0 °F 1022.9 in West 12.6 mph 24.8 mph 73 % 0.0 in
15:33 7.8 °F 3.0 °F 1022.9 in West 11.9 mph 24.8 mph 74 % 0.0 in
15:38 7.7 °F 3.0 °F 1022.9 in West 12.2 mph 19.1 mph 74 % 0.0 in
15:43 7.7 °F 3.0 °F 1022.9 in WSW 17.7 mph 19.5 mph 74 % 0.0 in
15:48 7.5 °F 4.0 °F 1022.9 in West 13.7 mph 19.8 mph 75 % 0.0 in
15:53 7.4 °F 3.0 °F 1022.9 in WSW 12.2 mph 19.8 mph 75 % 0.0 in
15:58 7.1 °F 3.0 °F 1022.9 in West 9.0 mph 16.3 mph 76 % 0.0 in
16:03 6.9 °F 3.0 °F 1022.9 in West 9.3 mph 15.4 mph 76 % 0.0 in
16:08 6.7 °F 3.0 °F 1022.9 in West 12.2 mph 15.4 mph 77 % 0.0 in
16:13 6.4 °F 3.0 °F 1022.9 in West 9.0 mph 12.2 mph 77 % 0.0 in
16:18 6.2 °F 3.0 °F 1022.9 in WSW 9.0 mph 12.2 mph 78 % 0.0 in
16:20 6.2 °F 3.0 °F 1022.9 in West 9.0 mph 11.9 mph 78 % 0.0 in
16:25 6.0 °F 3.0 °F 1022.9 in West 9.0 mph 13.7 mph 79 % 0.0 in
16:30 5.8 °F 3.0 °F 1022.9 in WSW 9.0 mph 14.8 mph 80 % 0.0 in
16:35 5.7 °F 3.0 °F 1022.9 in West 12.6 mph 14.8 mph 81 % 0.0 in
16:40 5.6 °F 3.0 °F 1022.9 in West 12.6 mph 14.0 mph 82 % 0.0 in
16:45 5.5 °F 3.0 °F 1022.9 in West 11.9 mph 13.7 mph 83 % 0.0 in
16:50 5.3 °F 3.0 °F 1022.9 in WSW 8.7 mph 14.0 mph 83 % 0.0 in
16:55 5.2 °F 3.0 °F 1022.9 in WSW 11.6 mph 14.0 mph 84 % 0.0 in
17:00 5.1 °F 3.0 °F 1022.9 in West 10.1 mph 13.7 mph 84 % 0.0 in
17:05 5.0 °F 3.0 °F 1022.9 in WSW 8.7 mph 13.7 mph 84 % 0.0 in
17:10 4.9 °F 3.0 °F 1022.9 in West 9.7 mph 11.6 mph 85 % 0.0 in
17:15 4.7 °F 3.0 °F 1022.9 in WSW 9.3 mph 11.1 mph 85 % 0.0 in
17:20 4.6 °F 3.0 °F 1022.9 in West 6.4 mph 11.1 mph 85 % 0.0 in
17:25 4.5 °F 3.0 °F 1023.9 in WSW 6.1 mph 9.7 mph 86 % 0.0 in
17:30 4.3 °F 2.0 °F 1023.9 in WSW 9.3 mph 10.1 mph 86 % 0.0 in
17:35 4.3 °F 2.0 °F 1023.9 in WSW 5.5 mph 11.6 mph 86 % 0.0 in
17:40 4.2 °F 3.0 °F 1022.9 in Calm   11.6 mph 87 % 0.0 in
17:45 4.2 °F 3.0 °F 1022.9 in West 6.1 mph 7.6 mph 87 % 0.0 in
17:50 4.1 °F 2.0 °F 1022.9 in West 6.9 mph 7.6 mph 87 % 0.0 in
17:55 4.1 °F 2.0 °F 1022.9 in Calm   7.6 mph 87 % 0.0 in
18:00 4.1 °F 2.0 °F 1022.9 in WSW 5.5 mph 5.8 mph 87 % 0.0 in
18:05 3.8 °F 2.0 °F 1022.9 in Calm   5.5 mph 87 % 0.0 in
18:11 3.8 °F 2.0 °F 1023.9 in Calm   4.3 mph 87 % 0.0 in
18:16 3.8 °F 2.0 °F 1023.9 in Calm   2.1 mph 87 % 0.0 in
18:21 3.8 °F 2.0 °F 1023.9 in Calm   2.1 mph 87 % 0.0 in
18:26 3.8 °F 2.0 °F 1023.9 in Calm     87 % 0.0 in
18:31 3.3 °F 2.0 °F 1023.9 in Calm   5.8 mph 88 % 0.0 in
18:36 3.3 °F 2.0 °F 1023.9 in Calm   5.8 mph 88 % 0.0 in
18:41 3.3 °F 2.0 °F 1024.9 in Calm   5.8 mph 89 % 0.0 in
18:42 3.3 °F 2.0 °F 1024.9 in Calm   3.2 mph 89 % 0.0 in
18:47 3.2 °F 2.0 °F 1024.9 in Calm   5.0 mph 89 % 0.0 in
18:52 3.1 °F 2.0 °F 1024.9 in Calm   5.8 mph 89 % 0.0 in
18:57 3.1 °F 2.0 °F 1023.9 in Calm   5.8 mph 89 % 0.0 in
19:02 3.1 °F 2.0 °F 1023.9 in Calm     89 % 0.0 in
19:07 3.1 °F 2.0 °F 1023.9 in Calm     89 % 0.0 in
19:12 2.4 °F 1.0 °F 1024.9 in Calm     89 % 0.0 in
19:17 2.2 °F 1.0 °F 1024.9 in Calm     89 % 0.0 in
19:22 2.2 °F 1.0 °F 1024.9 in Calm   4.3 mph 89 % 0.0 in
19:27 2.2 °F 1.0 °F 1024.9 in Calm   5.0 mph 89 % 0.0 in
19:32 2.2 °F 1.0 °F 1024.9 in WSW 5.5 mph 5.5 mph 89 % 0.0 in
19:37 2.2 °F 1.0 °F 1024.9 in West 7.6 mph 7.6 mph 89 % 0.0 in
19:42 2.7 °F 2.0 °F 1023.9 in Calm   7.6 mph 93 % 0.0 in
19:47 2.7 °F 2.0 °F 1023.9 in Calm   6.4 mph 93 % 0.0 in
19:52 2.7 °F 2.0 °F 1023.9 in Calm   6.1 mph 92 % 0.0 in
19:57 2.5 °F 2.0 °F 1024.9 in Calm     92 % 0.0 in
20:02 2.5 °F 2.0 °F 1024.9 in Calm     91 % 0.0 in
20:07 2.3 °F 1.0 °F 1024.9 in Calm     91 % 0.0 in
20:12 2.1 °F 1.0 °F 1024.9 in Calm     91 % 0.0 in
20:17 2.0 °F 1.0 °F 1024.9 in WSW 4.0 mph 4.0 mph 91 % 0.0 in
20:22 2.0 °F 1.0 °F 1024.9 in Calm   4.0 mph 91 % 0.0 in
20:32 2.1 °F 1.0 °F 1023.9 in Calm   1.8 mph 92 % 0.0 in
20:37 2.3 °F 2.0 °F 1023.9 in West 5.8 mph 5.8 mph 93 % 0.0 in
20:42 2.3 °F 2.0 °F 1023.9 in Calm   5.8 mph 93 % 0.0 in
20:47 2.1 °F 1.0 °F 1023.9 in Calm   5.8 mph 93 % 0.0 in
20:52 2.0 °F 1.0 °F 1023.9 in Calm   5.8 mph 93 % 0.0 in
20:57 2.0 °F 1.0 °F 1023.9 in West 2.6 mph 5.8 mph 93 % 0.0 in
21:02 2.2 °F 1.0 °F 1023.9 in Calm   6.9 mph 93 % 0.0 in
21:07 2.1 °F 1.0 °F 1023.9 in Calm   6.9 mph 94 % 0.0 in
21:12 2.0 °F 1.0 °F 1023.9 in Calm     93 % 0.0 in
21:17 2.1 °F 1.0 °F 1023.9 in West 5.5 mph 7.6 mph 93 % 0.0 in
21:22 2.1 °F 1.0 °F 1023.9 in West 5.5 mph 7.6 mph 94 % 0.0 in
21:27 2.1 °F 1.0 °F 1023.9 in West 4.3 mph 6.9 mph 94 % 0.0 in
21:33 2.1 °F 1.0 °F 1023.9 in Calm   7.9 mph 94 % 0.0 in
21:38 2.1 °F 1.0 °F 1023.9 in West 5.0 mph 7.9 mph 94 % 0.0 in
21:43 2.1 °F 1.0 °F 1023.9 in West 2.1 mph 6.9 mph 94 % 0.0 in
21:48 2.1 °F 1.0 °F 1023.9 in Calm   6.1 mph 93 % 0.0 in
21:53 1.9 °F 1.0 °F 1023.9 in Calm   5.5 mph 93 % 0.0 in
21:58 1.8 °F 1.0 °F 1023.9 in West 1.4 mph 6.4 mph 93 % 0.0 in
22:03 1.7 °F 1.0 °F 1023.9 in Calm   6.4 mph 93 % 0.0 in
22:08 1.7 °F 1.0 °F 1023.9 in Calm   5.8 mph 93 % 0.0 in
22:13 1.7 °F 1.0 °F 1023.9 in West 6.4 mph 6.4 mph 94 % 0.0 in
22:18 1.6 °F 1.0 °F 1023.9 in Calm   6.4 mph 94 % 0.0 in
22:23 1.6 °F 1.0 °F 1023.9 in Calm   5.8 mph 93 % 0.0 in
22:28 1.2 °F 1.0 °F 1023.9 in Calm     93 % 0.0 in
22:32 1.0 °F 0.0 °F 1023.9 in Calm     92 % 0.0 in
22:37 0.9 °F 0.0 °F 1023.9 in Calm     92 % 0.0 in
22:42 0.6 °F 0.0 °F 1023.9 in Calm   4.0 mph 92 % 0.0 in
22:47 0.5 °F 0.0 °F 1023.9 in Calm   4.0 mph 92 % 0.0 in
22:52 0.4 °F -1.0 °F 1023.9 in Calm     92 % 0.0 in
22:57 0.3 °F 0.0 °F 1023.9 in Calm     93 % 0.0 in
23:02 0.2 °F -1.0 °F 1023.9 in Calm     93 % 0.0 in
23:07 0.1 °F -1.0 °F 1023.9 in Calm     93 % 0.0 in
23:12 0.1 °F -1.0 °F 1023.9 in Calm     94 % 0.0 in
23:17 0.0 °F -2.0 °F 1023.9 in Calm     94 % 0.0 in
23:22 0.0 °F -2.0 °F 1023.9 in Calm     94 % 0.0 in
23:27 0.0 °F -2.0 °F 1023.9 in Calm     94 % 0.0 in
23:32 0.0 °F -1.0 °F 1023.9 in Calm     95 % 0.0 in
23:37 0.1 °F 0.0 °F 1023.9 in Calm     95 % 0.0 in
23:42 0.3 °F 0.0 °F 1022.9 in Calm     96 % 0.0 in
23:47 0.3 °F 0.0 °F 1022.9 in Calm     97 % 0.0 in
23:52 0.4 °F 0.0 °F 1022.9 in Calm     97 % 0.0 in
23:57 0.6 °F 1.0 °F 1023.9 in Calm   5.8 mph 97 % 0.0 in
Le Gheer Warneton
Courtoisie de Weather Underground - 2.25 mb

Mise a jour : 17/02/2018 20:22:11
Généré par Cumulus 1.9.4 (1099)